When you browse on this site, cookies collect data to enhance your experience and personalize the content and advertising you see.
Visit our Privacy Policy to learn more. By continuing to use the site, you agree to this use of cookies and data.
  • Em Portugal
  • Lista de países
  • Para 7 dias
  • Temperatura da água
  • Mapas de satélite
  • Mapa do tempo
  • Widgets de tempo
  • user-avatar
    Iniciar Sessão

    Previsão horária em Budische

    Hoje, 16 Novembro, Sexta-feira

    Tempo Temperatura Precipitação Vento Pressão Humidade
    00:00 +1°C° 0 mm 1 m/s 761 mmHg 94%
    01:00 +1°C° 0 mm 1 m/s 762 mmHg 94%
    02:00 0°C° 0 mm 1 m/s 762 mmHg 93%
    03:00 0°C° 0 mm 1 m/s 762 mmHg 93%
    04:00 0°C° 0 mm 1 m/s 762 mmHg 92%
    05:00 -1°C° 0 mm 1 m/s 763 mmHg 92%
    06:00 -1°C° 0 mm 1 m/s 763 mmHg 90%
    07:00 -2°C° 0 mm 1 m/s 763 mmHg 89%
    08:00 -4°C° 0 mm 2 m/s 764 mmHg 88%
    09:00 -1°C° 0 mm 1 m/s 764 mmHg 85%
    10:00 0°C° 0 mm 1 m/s 764 mmHg 81%
    11:00 +1°C° 0 mm 1 m/s 764 mmHg 78%
    12:00 +1°C° 0 mm 1 m/s 764 mmHg 79%
    13:00 +1°C° 0 mm 1 m/s 764 mmHg 79%
    14:00 +1°C° 0 mm 1 m/s 765 mmHg 80%
    15:00 0°C° 0 mm 1 m/s 765 mmHg 80%
    16:00 -1°C° 0 mm 1 m/s 765 mmHg 79%
    17:00 -2°C° 0 mm 1 m/s 765 mmHg 79%
    18:00 -2°C° 0 mm 1 m/s 765 mmHg 78%
    19:00 -3°C° 0 mm 1 m/s 765 mmHg 77%
    20:00 -3°C° 0 mm 1 m/s 765 mmHg 76%
    21:00 -3°C° 0 mm 1 m/s 765 mmHg 74%
    22:00 -3°C° 0 mm 1 m/s 765 mmHg 73%
    23:00 -3°C° 0 mm 1 m/s 765 mmHg 72%

    Amanhã, 17 Novembro, Sábado

    Tempo Temperatura Precipitação Vento Pressão Humidade
    00:00 -3°C° 0 mm 1 m/s 765 mmHg 70%
    01:00 -4°C° 0 mm 1 m/s 765 mmHg 68%
    02:00 -5°C° 0 mm 0 m/s 765 mmHg 67%
    03:00 -5°C° 0 mm 0 m/s 764 mmHg 66%
    04:00 -5°C° 0 mm 0 m/s 764 mmHg 64%
    05:00 -5°C° 0 mm 0 m/s 764 mmHg 63%
    06:00 -4°C° 0 mm 1 m/s 764 mmHg 63%
    07:00 -4°C° 0 mm 1 m/s 764 mmHg 63%
    08:00 -4°C° 0 mm 1 m/s 763 mmHg 63%
    09:00 -2°C° 0 mm 1 m/s 763 mmHg 64%
    10:00 -1°C° 0 mm 1 m/s 763 mmHg 65%
    11:00 0°C° 0 mm 1 m/s 763 mmHg 66%
    12:00 -1°C° 0 mm 2 m/s 762 mmHg 68%
    13:00 -1°C° 0 mm 2 m/s 761 mmHg 69%
    14:00 -1°C° 0 mm 2 m/s 761 mmHg 71%
    15:00 -1°C° 0 mm 2 m/s 760 mmHg 72%
    16:00 -1°C° 0 mm 3 m/s 760 mmHg 73%
    17:00 -1°C° 0 mm 3 m/s 759 mmHg 75%
    18:00 -2°C° 0 mm 3 m/s 758 mmHg 77%
    19:00 -2°C° 0 mm 3 m/s 758 mmHg 80%
    20:00 -2°C° 0 mm 3 m/s 757 mmHg 82%
    21:00 -2°C° 0 mm 3 m/s 756 mmHg 85%
    22:00 -3°C° 0 mm 4 m/s 756 mmHg 88%
    23:00 -2°C° 0 mm 4 m/s 755 mmHg 91%

    Depois de amanhã, 18 Novembro, Domingo

    Tempo Temperatura Precipitação Vento Pressão Humidade
    00:00 -2°C° 0 mm 4 m/s 754 mmHg 92%
    01:00 -2°C° 0 mm 4 m/s 753 mmHg 93%
    02:00 -1°C° 0 mm 4 m/s 753 mmHg 94%
    03:00 -1°C° 0.1 mm 4 m/s 752 mmHg 95%
    04:00 -1°C° 0.1 mm 4 m/s 751 mmHg 96%
    05:00 0°C° 0.1 mm 4 m/s 750 mmHg 96%
    06:00 0°C° 0.1 mm 4 m/s 749 mmHg 96%
    07:00 0°C° 0.1 mm 4 m/s 749 mmHg 97%
    08:00 0°C° 0.1 mm 4 m/s 748 mmHg 97%
    09:00 0°C° 0.2 mm 4 m/s 748 mmHg 97%
    10:00 +1°C° 0.2 mm 3 m/s 748 mmHg 97%
    11:00 +1°C° 0.2 mm 3 m/s 748 mmHg 97%
    12:00 +1°C° 0.2 mm 3 m/s 747 mmHg 97%
    13:00 +1°C° 0.2 mm 3 m/s 747 mmHg 97%
    14:00 +1°C° 0.2 mm 3 m/s 747 mmHg 97%
    15:00 +1°C° 0.3 mm 3 m/s 747 mmHg 97%
    16:00 0°C° 0.3 mm 4 m/s 747 mmHg 96%
    17:00 0°C° 0.3 mm 4 m/s 747 mmHg 96%
    18:00 0°C° 0.2 mm 4 m/s 747 mmHg 94%
    19:00 0°C° 0.2 mm 4 m/s 747 mmHg 93%
    20:00 0°C° 0.2 mm 4 m/s 747 mmHg 92%
    21:00 -1°C° 0.3 mm 4 m/s 747 mmHg 92%
    22:00 -1°C° 0.3 mm 4 m/s 747 mmHg 92%
    23:00 -1°C° 0.3 mm 4 m/s 747 mmHg 93%

    19 Novembro, Segunda-feira

    Tempo Temperatura Precipitação Vento Pressão Humidade
    00:00 -1°C° 0.1 mm 4 m/s 747 mmHg 93%
    01:00 -1°C° 0.1 mm 4 m/s 748 mmHg 94%
    02:00 -1°C° 0.1 mm 4 m/s 748 mmHg 94%
    03:00 -1°C° 0.1 mm 4 m/s 748 mmHg 94%
    04:00 -1°C° 0.1 mm 4 m/s 748 mmHg 94%
    05:00 -1°C° 0.1 mm 4 m/s 748 mmHg 95%
    06:00 -1°C° 0.1 mm 4 m/s 748 mmHg 94%
    07:00 -1°C° 0.1 mm 4 m/s 749 mmHg 94%
    08:00 -1°C° 0.1 mm 4 m/s 749 mmHg 93%
    09:00 -1°C° 0.2 mm 4 m/s 749 mmHg 93%
    10:00 -1°C° 0.2 mm 4 m/s 750 mmHg 92%
    11:00 0°C° 0.2 mm 4 m/s 750 mmHg 92%
    12:00 0°C° 0.3 mm 4 m/s 750 mmHg 92%
    13:00 0°C° 0.3 mm 4 m/s 750 mmHg 93%
    14:00 0°C° 0.3 mm 4 m/s 750 mmHg 93%
    15:00 -1°C° 0.1 mm 4 m/s 750 mmHg 93%
    16:00 -1°C° 0.1 mm 4 m/s 751 mmHg 93%
    17:00 -1°C° 0.1 mm 4 m/s 751 mmHg 93%
    18:00 -1°C° 0.1 mm 4 m/s 751 mmHg 93%
    19:00 0°C° 0.1 mm 3 m/s 751 mmHg 93%
    20:00 -1°C° 0.1 mm 3 m/s 752 mmHg 94%
    21:00 -1°C° 0.1 mm 3 m/s 752 mmHg 93%
    22:00 -1°C° 0.1 mm 3 m/s 752 mmHg 93%
    23:00 -1°C° 0.1 mm 3 m/s 752 mmHg 93%

    20 Novembro, Terça-feira

    Tempo Temperatura Precipitação Vento Pressão Humidade
    00:00 -2°C° 0 mm 3 m/s 753 mmHg 93%
    01:00 -2°C° 0 mm 3 m/s 753 mmHg 92%
    02:00 -4°C° 0 mm 3 m/s 753 mmHg 92%
    03:00 -4°C° 0 mm 3 m/s 753 mmHg 91%
    04:00 -5°C° 0 mm 3 m/s 753 mmHg 91%
    05:00 -6°C° 0 mm 3 m/s 753 mmHg 91%
    06:00 -6°C° 0 mm 3 m/s 753 mmHg 90%
    07:00 -6°C° 0 mm 3 m/s 753 mmHg 90%
    08:00 -6°C° 0 mm 3 m/s 753 mmHg 90%
    09:00 -5°C° 0 mm 3 m/s 753 mmHg 89%
    10:00 -4°C° 0 mm 3 m/s 753 mmHg 88%
    11:00 -4°C° 0 mm 4 m/s 753 mmHg 87%
    12:00 -2°C° 0 mm 3 m/s 753 mmHg 87%
    13:00 -2°C° 0 mm 3 m/s 753 mmHg 87%
    14:00 -1°C° 0 mm 3 m/s 752 mmHg 88%
    15:00 -2°C° 0 mm 3 m/s 752 mmHg 88%
    16:00 -2°C° 0 mm 3 m/s 752 mmHg 89%
    17:00 -2°C° 0 mm 3 m/s 752 mmHg 90%
    18:00 -2°C° 0 mm 3 m/s 752 mmHg 89%
    19:00 -2°C° 0 mm 3 m/s 752 mmHg 89%
    20:00 -4°C° 0 mm 3 m/s 752 mmHg 89%
    21:00 -3°C° 0 mm 2 m/s 752 mmHg 89%
    22:00 -3°C° 0 mm 2 m/s 751 mmHg 89%
    23:00 -3°C° 0 mm 2 m/s 751 mmHg 89%

    21 Novembro, Quarta-feira

    Tempo Temperatura Precipitação Vento Pressão Humidade
    00:00 -4°C° 0 mm 2 m/s 751 mmHg 90%
    01:00 -4°C° 0 mm 2 m/s 751 mmHg 91%
    02:00 -4°C° 0 mm 2 m/s 751 mmHg 92%
    03:00 -4°C° 0 mm 2 m/s 751 mmHg 93%
    04:00 -4°C° 0 mm 2 m/s 750 mmHg 93%
    05:00 -4°C° 0 mm 2 m/s 750 mmHg 94%
    06:00 -4°C° 0 mm 2 m/s 750 mmHg 93%
    07:00 -4°C° 0 mm 3 m/s 750 mmHg 93%
    08:00 -4°C° 0 mm 3 m/s 750 mmHg 93%
    09:00 -2°C° 0 mm 3 m/s 750 mmHg 92%
    10:00 -2°C° 0 mm 3 m/s 750 mmHg 90%
    11:00 -2°C° 0 mm 4 m/s 750 mmHg 89%
    12:00 -2°C° 0 mm 4 m/s 749 mmHg 89%
    13:00 -2°C° 0 mm 4 m/s 749 mmHg 89%
    14:00 -2°C° 0 mm 4 m/s 749 mmHg 88%
    15:00 -3°C° 0 mm 4 m/s 749 mmHg 89%
    16:00 -3°C° 0 mm 4 m/s 748 mmHg 89%
    17:00 -5°C° 0 mm 5 m/s 748 mmHg 90%
    18:00 -4°C° 0 mm 4 m/s 748 mmHg 89%
    19:00 -4°C° 0 mm 4 m/s 748 mmHg 89%
    20:00 -4°C° 0 mm 4 m/s 748 mmHg 88%
    21:00 -4°C° 0 mm 4 m/s 748 mmHg 88%
    22:00 -6°C° 0 mm 5 m/s 748 mmHg 87%
    23:00 -6°C° 0 mm 5 m/s 747 mmHg 87%
    Mostrar mais